Home > Weather > Wainwright > Past weeks

Flag for USA Past Weather in Wainwright, Alaska, USA — Yesterday and Last 2 Weeks

Now
39 °F

Light rain. Mostly cloudy.


Feels Like: 33 °F
Forecast: 38 / 42 °F
Wind: 8 mph from Northwest

Location: Wainwright Distant Early Warning

Current Time: Jul 30, 2016 at 2:43:12 PM

Latest Report: Jul 30, 2016 at 1:53 PM


Visibility: 7 mi

Pressure: 29.73 "Hg

Humidity: 82%

Dew Point: 34 °F

Location of WainwrightLocation

Past Weather in Wainwright — Graph

°F

Wainwright Temperature Yesterday

Maximum temperature yesterday: 44 °F (at 4:53 PM)
Minimum temperature yesterday: 37 °F (at 5:53 AM)
Average temperature yesterday: 41 °F

High & Low Weather Summary for the Past Weeks

 TemperatureHumidityPressure
High60 °F (Jul 21, 4:53 PM)100% (Jul 26, 5:53 AM)30.24 "Hg (Jul 26, 5:53 AM)
Low31 °F (Jul 20, 2:53 AM)46% (Jul 21, 5:53 PM)29.54 "Hg (Jul 27, 11:53 AM)
Average43 °F81%29.85 "Hg
* Reported Jul 15 1:53 PM — Jul 30 1:03 PM, Wainwright, Weather by CustomWeather, © 2016

Note: Actual official high and low records may vary slightly from our data, if they occured in-between our weather recording intervals... More about our weather records

Advertising

Wainwright Weather History for the Previous 24 Hours

Scroll right to see more
 ConditionsComfort  
Time TempWeatherWind HumidityBarometerVisibility
1:03 PM
Sat, Jul 30
39 °FMostly cloudy.10 mph86%29.72 "Hg10 mi
12:53 PM39 °FCloudy.9 mph86%29.72 "Hg10 mi
11:53 AM38 °FMostly cloudy.12 mph86%29.71 "Hg10 mi
10:59 AM39 °FMostly cloudy.14 mph86%29.70 "Hg10 mi
10:53 AM39 °FMostly cloudy.12 mph86%29.70 "Hg10 mi
10:04 AM38 °FLight rain. Mostly cloudy.12 mph86%29.69 "Hg8 mi
9:53 AM38 °FLight rain. Mostly cloudy.15 mph86%29.69 "Hg8 mi
8:53 AM39 °FLight rain. Fog.20 mph86%29.68 "Hg6 mi
7:53 AM40 °FLight rain. Mostly cloudy.21 mph83%29.67 "Hg10 mi
6:53 AM40 °FLight rain. Mostly cloudy.17 mph86%29.66 "Hg7 mi
5:53 AM41 °FLight rain. Mostly cloudy.25 mph82%29.65 "Hg7 mi
4:53 AM42 °FLight rain. Mostly cloudy.23 mph85%29.65 "Hg9 mi
3:53 AM42 °FLight rain. Mostly cloudy.21 mph82%29.66 "Hg8 mi
2:53 AM42 °FLight rain. Cloudy.23 mph79%29.67 "Hg10 mi
2:02 AM42 °FMostly cloudy.23 mph82%29.68 "Hg10 mi
1:53 AM41 °FLight rain. Mostly cloudy.21 mph82%29.68 "Hg9 mi
12:53 AM42 °FLight rain. Mostly cloudy.21 mph82%29.70 "Hg7 mi
11:53 PM
Fri, Jul 29
42 °FLight rain. More clouds than sun.21 mph82%29.71 "Hg10 mi
11:03 PM42 °FMostly cloudy.17 mph82%29.72 "Hg10 mi
9:53 PM43 °FMostly cloudy.14 mph82%29.72 "Hg10 mi
8:53 PM42 °FLight rain. Mostly cloudy.14 mph82%29.74 "Hg6 mi
7:53 PM43 °FMostly cloudy.13 mph79%29.74 "Hg10 mi
6:53 PM43 °FMore clouds than sun.12 mph76%29.75 "Hg10 mi
5:53 PM43 °FOvercast.9 mph76%29.76 "Hg10 mi
4:53 PM44 °FOvercast.12 mph76%29.76 "Hg10 mi
3:53 PM42 °FMostly cloudy.12 mph76%29.76 "Hg10 mi
2:53 PM41 °FLight rain. Cloudy.10 mph89%29.75 "Hg8 mi
Weather by CustomWeather, © 2016

See weather overviewHow to use our weather pages